Regional Weather Roundup
Issued by NWS Sterling, VA

Home | Current Version | Previous Version | Text Only | Print | Product List | Glossary Off
Versions: 1 2 3 4 5 6 7 8 9 10 11 12 13 14 15 16 17 18 19 20 21 22 23 24 25 26 27 28

000
ASUS41 KLWX 022311
RWRLWX

REGIONAL WEATHER ROUNDUP
NATIONAL WEATHER SERVICE BALTIMORE MD/WASHINGTON DC
700 PM EDT MON MAY 02 2016

Note: "FAIR" indicates few or no clouds below 12,000 feet
with no significant weather and/or obstructions to visibility.
 TC=TEMPERATURE CELSIUS

 * =Non NWS site. Station does not report precipitation (e.g. rain,
    snow, etc.), thunder, or fog.

DCZ001-MDZ009-015-VAZ040>042-051-053>054-030000-
WASHINGTON METRO

CITY           SKY/WX    TMP DP  RH WIND       PRES   REMARKS
WASHINGTON NAT TSTM      74  66  76 CALM      29.83R
DULLES         PTSUNNY   69  60  73 E6        29.81R
ANDREWS AFB    LGT RAIN  73  66  80 E7        29.83S
FT BELVOIR     TSTM      68  66  94 E3        29.83R
QUANTICO       CLOUDY    73  62  68 NE6       29.82R THUNDER
COLLEGE PARK*  FAIR      73  64  73 SE3       29.83R
LEESBURG*      PTSUNNY   79  68  69 SE8       29.82R
MANASSAS*      CLOUDY    66  63  88 E7        29.81F
GAITHERSBURG*  MOSUNNY   73  63  68 E5        29.87R

$$

MDZ006>007-011-014-030000-
BALTIMORE METRO

CITY           SKY/WX    TMP DP  RH WIND       PRES   REMARKS
BWI AIRPORT    CLOUDY    67  60  78 E7        29.84S
MD SCIENCE CTR   N/A     69  61  75 MISG      29.84R
MARTIN STATE   PTSUNNY   68  64  88 E3        29.86F
ANNAPOLIS      CLOUDY    66  62  87 SE5       29.84F
FORT MEADE*    CLOUDY    72  63  73 E6        29.86S

$$

MDZ012-015-019>023-030000-
MARYLAND EASTERN SHORE

CITY           SKY/WX    TMP DP  RH WIND       PRES   REMARKS
OCEAN CITY     CLEAR     62  59  90 S7        29.87F
SALISBURY      CLEAR     77  66  68 S6        29.85F
CAMBRIDGE*     CLOUDY    73  66  78 SE3       29.84S
EASTON*        PTSUNNY  N/A N/A N/A SE5       29.89F

$$

MDZ017>025-030000-
SOUTHERN MARYLAND

CITY           SKY/WX    TMP DP  RH WIND       PRES   REMARKS
PATUXENT RIVER PTSUNNY   67  63  87 SE8       29.84S
ST INIGOES     CLOUDY    72  65  78 E7        29.82F
LEONARDTOWN*   CLOUDY    72  64  78 E3        29.85F

$$

MDZ003>005-030000-
NORTH CENTRAL MARYLAND

CITY           SKY/WX    TMP DP  RH WIND       PRES   REMARKS
FREDERICK*     SUNNY     75  66  73 S5        29.85R
HAGERSTOWN APT MOSUNNY   77  61  57 S8        29.81S
WESTMINSTER*   MOSUNNY   75  72  88 SE8       29.84R

$$

MDZ501>502-030000-
WESTERN MARYLAND

CITY           SKY/WX    TMP DP  RH WIND       PRES   REMARKS
OAKLAND*       CLOUDY    64  48  55 W8G16     29.93S
CUMBERLAND*    CLOUDY    79  48  34 W5        29.86R

$$

VAZ025>031-030000-
SHENANDOAH VALLEY

CITY           SKY/WX    TMP DP  RH WIND       PRES   REMARKS
WINCHESTER*      N/A     77  64  65 CALM      29.81R
FRONT ROYAL*   MOCLDY    77  61  57 S10       29.79S
LURAY*         MOCLDY    73  61  64 CALM      29.81S
NEW MARKET*    MOCLDY    69  65  86 CALM      29.79S
STAUNTON*      RAIN      67  62  84 S12G20    29.88R
WAYNESBORO*    CLOUDY    63  58  85 S6        29.88S

$$

WVZ021-048>050-054>055-030000-
EASTERN WEST VIRGINIA PANHANDLE

CITY           SKY/WX    TMP DP  RH WIND       PRES   REMARKS
MARTINSBURG    PTSUNNY   77  62  59 E5        29.80R
PETERSBURG*    PTSUNNY   79  49  34 W16G22    29.85R

$$

VAZ036>039-050-030000-
CENTRAL FOOTHILLS

CITY           SKY/WX    TMP DP  RH WIND       PRES   REMARKS
CHARLOTTESVILL TSTM      72  64  76 SW9G20    29.87R
CULPEPER*      PTSUNNY   81  64  54 S7        29.82R
ORANGE*        CLOUDY    79  63  57 SW13      29.85R
GORDONSVILLE*  MOCLDY    78  65  63 SW10G16   29.84R
WARRENTON*     FAIR      73  56  56 E8        29.81R

$$

VAZ055>057-030000-
NORTH AND CENTRAL PIEDMONT

CITY           SKY/WX    TMP DP  RH WIND       PRES   REMARKS
FREDERICKSBRG* FAIR      81  65  58 S8        29.80R
STAFFORD*      FAIR      79  61  53 S5        29.85R

$$

NCZ024-NYZ072-PAZ021-071-VAZ022-071-030000-
OTHER REGIONAL OBSERVATIONS

CITY           SKY/WX    TMP DP  RH WIND       PRES   REMARKS
NEW YORK CITY  CLOUDY    59  51  75 W3        29.92S
PHILADELPHIA   PTCLDY    65  55  70 CALM      29.89F
PITTSBURGH     CLOUDY    58  47  66 N7        29.93R
ROANOKE        PTSUNNY   72  61  68 NE9       29.88S
RICHMOND       CLOUDY    77  65  66 S8        29.85R
RALEIGH        CLOUDY    72  66  81 S5        29.93R

$$

ANZ530>537-030000-
MARINE OBSERVATIONS

STATION/POSITION TIME  TEMP    WIND        PRES
                       AIR SEA DIR/SP/G
                 (UTC) (F)     (DEG/KT/KT) (MB)
THOMAS PT LIGHT  2300   68 59  100/  4/  4 1011.8F
BALT KEY BRIDGE  2200   66                 1010.7F
COVE POINT       2200   64                 1011.2F
LEWISETTA        2200   65 63              1010.1F
SOLOMONS ISLAND  2200   65 62                N/A

$$





USA.gov is the U.S. government's official web portal to all federal, state and local government web resources and services.